Tracking 29892 objects as of 21-Nov-2024
HD Live streaming from Space Station
objects crossing your sky now

STARLINK-2255

Track STARLINK-2255 now!
10-day predictions
STARLINK-2255 is classified as:


NORAD ID: 48597
Int'l Code: 2021-041AW
Perigee: 553.4 km
Apogee: 555.2 km
Inclination: 53.1 °
Period: 95.6 minutes
Semi major axis: 6925 km
RCS: Unknown
Launch date: May 15, 2021
Source: United States (US)
Launch site: AIR FORCE EASTERN TEST RANGE (AFETR)
Your satellite tracking list
Your tracking list is empty




NASA's NSSDC Master Catalog

Two Line Element Set (TLE):
1 48597U 21041AW  24325.81339365  .00002479  00000-0  18518-3 0  9993
2 48597  53.0534 108.9301 0001292  96.7903 263.3233 15.06418456194900
Source of the keplerian elements: AFSPC